Date String (YYYY-MM-DD hh:mm:ss) UTC,Instrument flags,Ambient pressure (hPa),Sample flow (lpm),Bypass flow (lpm),Sample temperature (°C),Ambient temperature (°C),ASC tube jacket temperature (°C),LED temperature (°C),Box temperature (°C),Sample RH (%),Span deviation,Mass concentration (μg/m³),Mass concentration (μg/m³),Mass concentration (μg/m³)
DateTimeUTC,F1_M11,P_M11,Q1_M11,Q2_M11,T1_M11,T2_M11,T3_M11,T4_M11,T5_M11,U1_M11,ZSPAN_M11,X0_M11,X2_M11,X1_M11
2022-04-06 16:00:00,,0826.8,5.00,0.00,21.9,20.6,00.0,31.0,23.3,04.2,0000.0,0006.50,0001.13,0000.68
2022-04-06 16:01:00,,0826.7,4.99,0.00,21.8,20.4,00.0,30.9,23.2,04.3,0000.0,0005.10,0001.14,0000.69
2022-04-06 16:02:00,,0826.7,5.01,0.00,21.8,20.7,00.0,30.9,23.3,04.3,0000.0,0005.60,0001.12,0000.69
2022-04-06 16:03:00,,0826.8,5.00,0.00,21.9,21.9,00.0,30.9,23.6,04.3,0000.0,0006.10,0001.16,0000.69
2022-04-06 16:04:00,,0826.7,5.01,0.00,22.1,23.1,00.0,31.0,24.0,04.3,0000.0,0005.97,0001.17,0000.70
2022-04-06 16:05:00,,0826.7,4.98,0.00,22.2,23.3,00.0,31.0,24.2,04.2,0000.0,0006.18,0001.23,0000.71
2022-04-06 16:06:00,,0826.8,5.00,0.00,22.2,22.9,00.0,31.0,24.1,04.2,0000.0,0006.18,0001.24,0000.71
2022-04-06 16:07:00,,0826.8,4.99,0.00,22.2,22.4,00.0,31.1,23.9,04.3,0000.0,0006.26,0001.24,0000.71
2022-04-06 16:08:00,,0826.9,5.01,0.00,22.1,22.0,00.0,31.1,23.8,04.3,0000.0,0006.42,0001.29,0000.73
2022-04-06 16:09:00,,0826.8,5.00,0.00,22.1,21.7,00.0,31.0,23.7,04.4,0000.0,0006.19,0001.34,0000.72
2022-04-06 16:10:00,,0826.9,5.00,0.00,22.0,21.4,00.0,31.0,23.6,04.2,0000.0,0006.55,0001.27,0000.72
2022-04-06 16:11:00,,0826.8,5.00,0.00,22.0,21.1,00.0,31.0,23.5,04.2,0000.0,0006.43,0001.26,0000.70
2022-04-06 16:12:00,,0826.8,5.00,0.00,21.9,20.9,00.0,31.0,23.4,04.1,0000.0,0006.12,0001.24,0000.69
2022-04-06 16:13:00,,0826.9,5.00,0.00,21.9,20.7,00.0,30.9,23.3,04.1,0000.0,0004.36,0001.23,0000.68
2022-04-06 16:14:00,,0827.0,4.99,0.00,21.8,20.6,00.0,30.9,23.2,04.2,0000.0,0004.09,0001.15,0000.67
2022-04-06 16:15:00,,0826.9,5.00,0.00,21.7,20.5,00.0,30.9,23.2,04.3,0000.0,0004.60,0001.19,0000.67
2022-04-06 16:16:00,,0826.9,5.00,0.00,21.7,20.9,00.0,30.9,23.3,04.4,0000.0,0004.45,0001.15,0000.67
2022-04-06 16:17:00,,0827.0,5.00,0.00,21.9,22.2,00.0,30.9,23.7,04.4,0000.0,0004.63,0001.17,0000.67
2022-04-06 16:18:00,,0827.0,4.99,0.00,22.1,23.3,00.0,31.0,24.1,04.3,0000.0,0005.19,0001.20,0000.67
2022-04-06 16:19:00,,0827.0,5.01,0.00,22.2,23.3,00.0,31.0,24.2,04.2,0000.0,0005.67,0001.17,0000.66
2022-04-06 16:20:00,,0826.9,4.98,0.00,22.2,22.8,00.0,31.0,24.0,04.3,0000.0,0005.10,0001.10,0000.66
2022-04-06 16:21:00,,0827.0,5.00,0.00,22.1,22.3,00.0,31.0,23.9,04.3,0000.0,0004.50,0001.15,0000.67
2022-04-06 16:22:00,,0827.1,5.01,0.00,22.1,22.0,00.0,31.0,23.8,04.2,0000.0,0004.92,0001.19,0000.68
2022-04-06 16:23:00,,0827.2,4.99,0.00,22.1,21.7,00.0,31.0,23.7,04.2,0000.0,0004.97,0001.21,0000.69
2022-04-06 16:24:00,,0827.1,5.01,0.00,22.0,21.4,00.0,31.0,23.6,04.3,0000.0,0004.99,0001.23,0000.69
2022-04-06 16:25:00,,0827.1,4.98,0.00,22.0,21.1,00.0,31.0,23.5,04.4,0000.0,0004.71,0001.25,0000.70
2022-04-06 16:26:00,,0827.2,5.02,0.00,21.9,20.9,00.0,31.0,23.4,04.3,0000.0,0004.16,0001.20,0000.69
2022-04-06 16:27:00,,0827.1,4.98,0.00,21.9,20.8,00.0,30.9,23.4,04.3,0000.0,0004.22,0001.22,0000.69
2022-04-06 16:28:00,,0827.3,5.00,0.00,21.8,20.7,00.0,30.9,23.3,04.1,0000.0,0004.12,0001.22,0000.68
2022-04-06 16:29:00,,0827.4,5.01,0.00,21.8,20.5,00.0,30.9,23.3,04.2,0000.0,0003.87,0001.24,0000.69
2022-04-06 16:30:00,,0827.5,5.00,0.00,21.7,20.4,00.0,30.9,23.2,04.1,0000.0,0003.02,0001.21,0000.68
2022-04-06 16:31:00,,0827.6,5.00,0.00,21.7,20.5,00.0,30.8,23.1,04.4,0000.0,0003.14,0001.25,0000.68
2022-04-06 16:32:00,,0827.7,5.01,0.00,21.7,21.6,00.0,30.9,23.4,04.3,0000.0,0002.86,0001.23,0000.68
2022-04-06 16:33:00,,0827.4,4.99,0.00,21.9,22.9,00.0,30.9,23.9,04.2,0000.0,0002.35,0001.19,0000.67
2022-04-06 16:34:00,,0827.5,5.01,0.00,22.1,23.6,00.0,31.0,24.1,04.1,0000.0,0002.29,0001.16,0000.66
2022-04-06 16:35:00,,0827.7,5.01,0.00,22.1,23.1,00.0,31.0,24.1,04.2,0000.0,0002.23,0001.14,0000.66
2022-04-06 16:36:00,,0827.6,4.99,0.00,22.1,22.7,00.0,31.0,23.9,04.2,0000.0,0002.13,0001.12,0000.65
2022-04-06 16:37:00,,0827.7,5.02,0.00,22.1,22.2,00.0,31.0,23.8,04.1,0000.0,0002.11,0001.11,0000.66
2022-04-06 16:38:00,,0827.7,4.99,0.00,22.0,21.9,00.0,31.0,23.7,04.1,0000.0,0002.55,0001.11,0000.65
2022-04-06 16:39:00,,0827.7,5.00,0.00,22.0,21.6,00.0,31.0,23.6,04.2,0000.0,0002.96,0001.11,0000.65
2022-04-06 16:40:00,,0827.7,5.01,0.00,22.0,21.3,00.0,31.0,23.6,04.2,0000.0,0002.83,0001.08,0000.64
2022-04-06 16:41:00,,0827.8,5.01,0.00,21.9,21.1,00.0,30.9,23.5,04.2,0000.0,0003.38,0001.09,0000.64
2022-04-06 16:42:00,,0827.8,4.99,0.00,21.9,20.9,00.0,30.9,23.4,04.3,0000.0,0004.15,0001.07,0000.63
2022-04-06 16:43:00,,0827.9,4.99,0.00,21.8,20.8,00.0,30.9,23.4,04.2,0000.0,0004.06,0001.04,0000.63
2022-04-06 16:44:00,,0827.8,4.99,0.00,21.8,20.7,00.0,30.9,23.3,04.2,0000.0,0003.99,0001.03,0000.63
2022-04-06 16:45:00,,0827.8,5.01,0.00,21.7,20.6,00.0,30.9,23.2,04.3,0000.0,0004.05,0001.05,0000.63
2022-04-06 16:46:00,,0827.8,5.00,0.00,21.7,20.5,00.0,30.8,23.2,04.2,0000.0,0004.17,0001.08,0000.64
2022-04-06 16:47:00,,0827.8,5.02,0.00,21.6,20.4,00.0,30.8,23.2,04.2,0000.0,0004.16,0001.07,0000.64
2022-04-06 16:48:00,,0828.0,5.01,0.00,21.6,20.5,00.0,30.8,23.1,04.3,0000.0,0004.22,0001.09,0000.64
2022-04-06 16:49:00,,0828.0,5.00,0.00,21.6,21.5,00.0,30.8,23.3,04.3,0000.0,0004.37,0001.09,0000.65
2022-04-06 16:50:00,,0827.9,4.99,0.00,21.8,22.8,00.0,30.8,23.7,04.1,0000.0,0004.48,0001.04,0000.65
2022-04-06 16:51:00,,0828.0,5.00,0.00,22.0,23.5,00.0,30.9,24.0,04.1,0000.0,0004.51,0001.05,0000.66
2022-04-06 16:52:00,,0828.0,5.02,0.00,22.1,23.1,00.0,30.9,24.0,04.1,0000.0,0004.23,0001.06,0000.66
2022-04-06 16:53:00,,0827.9,4.98,0.00,22.0,22.7,00.0,30.9,23.8,04.2,0000.0,0003.64,0001.05,0000.66
2022-04-06 16:54:00,,0827.8,5.00,0.00,22.0,22.3,00.0,30.9,23.7,04.2,0000.0,0004.36,0001.09,0000.67
2022-04-06 16:55:00,,0827.8,4.99,0.00,21.9,21.9,00.0,30.9,23.6,04.2,0000.0,0004.51,0001.13,0000.68
2022-04-06 16:56:00,,0828.0,5.01,0.00,21.9,21.6,00.0,30.9,23.4,04.2,0000.0,0004.50,0001.11,0000.67
2022-04-06 16:57:00,,0828.1,5.01,0.00,21.8,21.4,00.0,30.9,23.3,04.3,0000.0,0004.56,0001.12,0000.66
2022-04-06 16:58:00,,0828.1,5.00,0.00,21.7,21.2,00.0,30.8,23.3,04.2,0000.0,0004.61,0001.14,0000.66
2022-04-06 16:59:00,,0828.1,4.98,0.00,21.7,21.0,00.0,30.8,23.2,04.1,0000.0,0004.64,0001.13,0000.65
